QPF
0.00 0.01 0.02 0.04 0.11 0.05 0.00 0.00 0.00 0.00 0.00 0.00 0.00 0.00 0.01 0.02 0.07 0.08 0.02 0.00 0.00 0.00 0.00 0.00 0.00 0.01 0.01 0.01 0.01 0.01 0.02 0.03 0.02 0.01 0.01 0.01 0.01 0.01 0.01 0.01 0.01 0.01 0.01 0.01 0.01 0.01 0.01 0.01 0.02
0.01 0.01 0.03 0.08 0.10 0.02 0.01 0.00 0.00 0.00 0.00 0.00 0.00 0.00 0.00 0.00 0.00 0.01 0.01 0.00 0.00 0.00 0.00 0.00 0.01 0.01 0.01 0.01 0.01 0.01 0.02 0.03 0.02 0.01 0.00 0.00 0.00 0.00 0.00 0.00 0.00 0.00 0.00 0.01 0.01 0.01 0.01 0.01 0.02
0.01 0.01 0.05 0.09 0.02 0.01 0.01 0.00 0.00 0.00 0.00 0.00 0.00 0.00 0.00 0.00 0.00 0.01 0.01 0.00 0.00 0.00 0.00 0.01 0.01 0.02 0.01 0.01 0.02 0.02 0.02 0.02 0.02 0.01 0.01 0.01 0.01 0.01 0.00 0.00 0.00 0.00 0.01 0.01 0.01 0.01 0.01 0.01 0.01
0.01 0.03 0.05 0.03 0.00 0.00 0.00 0.00 0.00 0.00 0.00 0.00 0.00 0.00 0.00 0.01 0.01 0.01 0.01 0.01 0.00 0.00 0.00 0.01 0.01 0.02 0.02 0.02 0.02 0.03 0.02 0.02 0.02 0.01 0.01 0.01 0.01 0.00 0.00 0.00 0.00 0.00 0.01 0.01 0.01 0.01 0.01 0.02 0.01
0.01 0.05 0.07 0.02 0.01 0.00 0.00 0.00 0.00 0.00 0.00 0.00 0.01 0.00 0.02 0.01 0.01 0.01 0.01 0.01 0.00 0.00 0.00 0.00 0.01 0.02 0.02 0.02 0.03 0.03 0.03 0.04 0.03 0.02 0.02 0.02 0.01 0.00 0.00 0.00 0.00 0.00 0.01 0.01 0.01 0.01 0.01 0.01 0.01
0.02 0.08 0.10 0.04 0.03 0.02 0.00 0.00 0.01 0.00 0.00 0.00 0.01 0.02 0.02 0.02 0.01 0.02 0.01 0.01 0.02 0.01 0.01 0.01 0.01 0.02 0.02 0.02 0.03 0.04 0.04 0.05 0.05 0.04 0.03 0.03 0.02 0.01 0.01 0.01 0.00 0.00 0.00 0.01 0.01 0.01 0.01 0.01 0.01
0.03 0.07 0.06 0.04 0.03 0.03 0.01 0.00 0.00 0.00 0.00 0.01 0.01 0.03 0.04 0.03 0.02 0.02 0.02 0.02 0.03 0.03 0.03 0.03 0.04 0.04 0.04 0.04 0.04 0.04 0.04 0.05 0.06 0.05 0.04 0.04 0.03 0.01 0.01 0.01 0.01 0.00 0.00 0.01 0.01 0.01 0.01 0.01 0.01
0.00 0.01 0.04 0.09 0.06 0.05 0.01 0.00 0.00 0.00 0.00 0.00 0.01 0.04 0.10 0.08 0.03 0.02 0.02 0.02 0.03 0.05 0.06 0.05 0.08 0.11 0.12 0.14 0.10 0.07 0.06 0.06 0.06 0.06 0.05 0.05 0.03 0.01 0.01 0.01 0.00 0.00 0.00 0.00 0.00 0.01 0.01 0.01 0.01
0.00 0.03 0.10 0.08 0.05 0.04 0.01 0.01 0.01 0.00 0.01 0.01 0.01 0.04 0.07 0.07 0.04 0.05 0.05 0.04 0.04 0.06 0.07 0.07 0.07 0.09 0.12 0.13 0.13 0.14 0.11 0.09 0.07 0.06 0.05 0.04 0.02 0.05 0.05 0.03 0.02 0.01 0.00 0.00 0.00 0.00 0.00 0.00 0.00
0.00 0.06 0.09 0.02 0.01 0.01 0.02 0.01 0.01 0.01 0.02 0.01 0.02 0.02 0.03 0.04 0.05 0.06 0.06 0.06 0.05 0.05 0.06 0.06 0.07 0.08 0.09 0.09 0.11 0.16 0.15 0.17 0.11 0.12 0.13 0.11 0.11 0.13 0.12 0.11 0.07 0.03 0.01 0.00 0.00 0.00 0.00 0.00 0.02
0.00 0.03 0.02 0.00 0.00 0.00 0.01 0.01 0.01 0.01 0.02 0.01 0.02 0.02 0.03 0.04 0.04 0.04 0.03 0.03 0.03 0.03 0.04 0.04 0.05 0.05 0.06 0.07 0.09 0.11 0.13 0.16 0.14 0.14 0.15 0.20 0.17 0.13 0.10 0.10 0.07 0.03 0.02 0.01 0.01 0.00 0.00 0.01 0.03
0.00 0.01 0.00 0.00 0.00 0.01 0.01 0.01 0.01 0.01 0.02 0.01 0.01 0.02 0.03 0.05 0.05 0.04 0.04 0.04 0.03 0.03 0.04 0.03 0.03 0.03 0.04 0.07 0.07 0.08 0.13 0.14 0.11 0.08 0.08 0.18 0.16 0.12 0.08 0.08 0.08 0.06 0.04 0.03 0.01 0.01 0.00 0.01 0.01
0.00 0.00 0.00 0.00 0.00 0.00 0.00 0.00 0.00 0.00 0.02 0.01 0.01 0.02 0.02 0.03 0.04 0.03 0.03 0.03 0.03 0.04 0.04 0.03 0.02 0.02 0.03 0.04 0.06 0.07 0.10 0.10 0.10 0.10 0.07 0.10 0.12 0.09 0.08 0.06 0.06 0.06 0.05 0.03 0.01 0.01 0.00 0.00 0.00
0.01 0.00 0.00 0.00 0.00 0.00 0.00 0.00 0.00 0.01 0.01 0.00 0.01 0.01 0.01 0.01 0.02 0.01 0.01 0.02 0.02 0.02 0.02 0.02 0.02 0.01 0.02 0.03 0.04 0.06 0.08 0.09 0.07 0.07 0.07 0.09 0.11 0.10 0.10 0.08 0.08 0.06 0.05 0.03 0.01 0.00 0.00 0.00 0.00
0.00 0.00 0.01 0.00 0.00 0.00 0.01 0.02 0.01 0.01 0.01 0.00 0.00 0.00 0.00 0.01 0.00 0.01 0.01 0.01 0.02 0.01 0.01 0.01 0.01 0.01 0.01 0.01 0.02 0.03 0.05 0.07 0.08 0.09 0.08 0.08 0.09 0.12 0.13 0.11 0.11 0.09 0.06 0.04 0.02 0.01 0.00 0.00 0.00
0.00 0.02 0.06 0.02 0.00 0.00 0.02 0.04 0.01 0.00 0.00 0.00 0.00 0.00 0.00 0.00 0.00 0.00 0.01 0.01 0.01 0.01 0.01 0.01 0.01 0.01 0.01 0.01 0.02 0.04 0.06 0.07 0.06 0.08 0.11 0.10 0.09 0.11 0.15 0.15 0.11 0.10 0.10 0.08 0.06 0.03 0.02 0.01 0.00
0.01 0.05 0.09 0.04 0.01 0.00 0.01 0.01 0.00 0.00 0.00 0.00 0.00 0.00 0.00 0.01 0.01 0.01 0.01 0.01 0.00 0.00 0.00 0.00 0.01 0.00 0.01 0.01 0.02 0.03 0.04 0.05 0.05 0.07 0.10 0.11 0.12 0.12 0.15 0.15 0.13 0.12 0.11 0.10 0.08 0.04 0.02 0.02 0.02
0.01 0.02 0.04 0.03 0.01 0.00 0.01 0.00 0.00 0.00 0.00 0.00 0.00 0.00 0.00 0.01 0.01 0.01 0.01 0.00 0.00 0.00 0.00 0.01 0.01 0.01 0.01 0.01 0.01 0.03 0.04 0.04 0.06 0.07 0.08 0.10 0.13 0.13 0.16 0.15 0.14 0.14 0.15 0.14 0.10 0.08 0.05 0.04 0.03
0.00 0.00 0.01 0.01 0.00 0.00 0.00 0.00 0.00 0.00 0.00 0.00 0.00 0.00 0.00 0.00 0.01 0.00 0.00 0.00 0.00 0.00 0.00 0.00 0.01 0.01 0.02 0.02 0.02 0.02 0.03 0.05 0.07 0.09 0.10 0.13 0.14 0.15 0.18 0.18 0.19 0.19 0.20 0.18 0.13 0.12 0.10 0.06 0.05
0.00 0.00 0.00 0.00 0.00 0.00 0.00 0.00 0.00 0.00 0.00 0.00 0.00 0.00 0.00 0.00 0.00 0.00 0.00 0.00 0.00 0.00 0.00 0.00 0.01 0.01 0.02 0.02 0.03 0.04 0.04 0.04 0.07 0.09 0.09 0.12 0.15 0.19 0.20 0.21 0.24 0.24 0.23 0.22 0.20 0.21 0.19 0.12 0.07
0.00 0.00 0.00 0.00 0.00 0.00 0.00 0.01 0.01 0.00 0.00 0.00 0.00 0.00 0.00 0.00 0.00 0.00 0.00 0.01 0.00 0.00 0.00 0.01 0.01 0.02 0.02 0.02 0.04 0.05 0.06 0.07 0.08 0.08 0.09 0.09 0.11 0.16 0.20 0.23 0.25 0.24 0.23 0.22 0.21 0.22 0.23 0.20 0.13
0.00 0.00 0.00 0.00 0.00 0.00 0.00 0.01 0.02 0.01 0.01 0.00 0.00 0.00 0.00 0.00 0.00 0.01 0.01 0.01 0.01 0.00 0.00 0.01 0.02 0.02 0.02 0.02 0.04 0.05 0.07 0.07 0.08 0.10 0.12 0.11 0.12 0.15 0.17 0.19 0.25 0.28 0.27 0.21 0.20 0.19 0.19 0.22 0.20
0.00 0.00 0.00 0.00 0.00 0.00 0.00 0.01 0.02 0.01 0.01 0.01 0.00 0.00 0.00 0.00 0.00 0.00 0.01 0.01 0.01 0.01 0.01 0.01 0.02 0.02 0.02 0.02 0.04 0.06 0.07 0.09 0.10 0.12 0.14 0.13 0.13 0.15 0.16 0.19 0.21 0.22 0.24 0.22 0.21 0.19 0.18 0.17 0.17
0.00 0.00 0.00 0.00 0.00 0.00 0.00 0.01 0.02 0.00 0.00 0.00 0.00 0.00 0.00 0.00 0.00 0.01 0.01 0.01 0.02 0.01 0.01 0.01 0.01 0.02 0.02 0.02 0.03 0.04 0.06 0.08 0.09 0.10 0.12 0.14 0.14 0.16 0.17 0.17 0.19 0.19 0.19 0.19 0.21 0.21 0.20 0.18 0.15
0.00 0.00 0.00 0.00 0.00 0.00 0.00 0.00 0.00 0.00 0.00 0.00 0.00 0.00 0.00 0.00 0.01 0.01 0.01 0.02 0.02 0.01 0.01 0.01 0.01 0.02 0.02 0.03 0.04 0.05 0.08 0.08 0.08 0.10 0.11 0.12 0.13 0.14 0.18 0.19 0.16 0.14 0.14 0.17 0.21 0.21 0.22 0.21 0.18
0.00 0.00 0.00 0.00 0.00 0.00 0.00 0.00 0.00 0.00 0.00 0.00 0.00 0.00 0.00 0.00 0.01 0.01 0.01 0.01 0.01 0.01 0.01 0.01 0.01 0.01 0.02 0.03 0.04 0.07 0.12 0.10 0.12 0.10 0.10 0.13 0.15 0.16 0.16 0.20 0.20 0.16 0.15 0.16 0.20 0.24 0.26 0.25 0.22
0.00 0.00 0.00 0.00 0.00 0.00 0.00 0.00 0.00 0.00 0.00 0.00 0.00 0.00 0.00 0.01 0.00 0.00 0.00 0.00 0.00 0.00 0.00 0.01 0.01 0.02 0.02 0.03 0.04 0.08 0.09 0.09 0.10 0.10 0.10 0.12 0.14 0.15 0.16 0.17 0.18 0.19 0.17 0.17 0.19 0.20 0.23 0.26 0.26
0.00 0.00 0.00 0.00 0.00 0.00 0.00 0.00 0.00 0.00 0.00 0.00 0.00 0.00 0.00 0.00 0.00 0.00 0.00 0.00 0.00 0.00 0.00 0.01 0.01 0.01 0.02 0.03 0.04 0.06 0.07 0.06 0.09 0.10 0.11 0.11 0.14 0.15 0.16 0.17 0.17 0.19 0.19 0.18 0.20 0.22 0.22 0.22 0.23
0.00 0.00 0.00 0.00 0.00 0.00 0.00 0.00 0.00 0.00 0.00 0.00 0.00 0.00 0.00 0.00 0.00 0.00 0.00 0.00 0.00 0.00 0.00 0.01 0.01 0.01 0.03 0.04 0.04 0.05 0.06 0.07 0.09 0.11 0.11 0.14 0.16 0.16 0.18 0.17 0.18 0.18 0.19 0.17 0.17 0.18 0.19 0.20 0.22
0.00 0.00 0.00 0.00 0.00 0.00 0.00 0.00 0.00 0.00 0.00 0.00 0.00 0.00 0.00 0.00 0.00 0.00 0.00 0.00 0.00 0.00 0.00 0.00 0.01 0.03 0.05 0.06 0.04 0.05 0.05 0.05 0.06 0.09 0.11 0.12 0.15 0.15 0.17 0.16 0.14 0.14 0.15 0.14 0.13 0.16 0.17 0.18 0.20
MSLP
1008.86 1009.88 1011.02 1012.12 1013.01 1013.59 1013.80 1013.66 1013.25 1012.72 1012.22 1011.86 1011.73 1011.82 1012.09 1012.43 1012.75 1012.96 1013.04 1012.98 1012.87 1012.78 1012.78 1012.92 1013.22 1013.61 1014.04 1014.43 1014.71 1014.87 1014.91 1014.89 1014.85 1014.87 1014.97 1015.15 1015.40 1015.65 1015.86 1015.99 1016.03 1015.99 1015.90 1015.81 1015.76 1015.75 1015.80 1015.89 1015.97
1009.37 1010.54 1011.74 1012.81 1013.60 1014.01 1014.02 1013.69 1013.13 1012.49 1011.93 1011.56 1011.42 1011.50 1011.74 1012.05 1012.31 1012.48 1012.52 1012.49 1012.43 1012.44 1012.57 1012.84 1013.25 1013.73 1014.21 1014.60 1014.87 1015.00 1015.02 1014.99 1014.97 1015.01 1015.13 1015.33 1015.57 1015.79 1015.95 1016.02 1016.00 1015.92 1015.81 1015.73 1015.71 1015.75 1015.84 1015.97 1016.08
1009.94 1011.19 1012.40 1013.39 1014.04 1014.28 1014.11 1013.63 1012.96 1012.27 1011.69 1011.33 1011.21 1011.31 1011.53 1011.78 1011.98 1012.08 1012.08 1012.04 1012.03 1012.11 1012.34 1012.72 1013.23 1013.77 1014.28 1014.69 1014.95 1015.06 1015.08 1015.06 1015.06 1015.13 1015.29 1015.50 1015.73 1015.92 1016.02 1016.04 1015.96 1015.85 1015.73 1015.67 1015.68 1015.77 1015.91 1016.06 1016.19
1010.48 1011.76 1012.93 1013.83 1014.34 1014.43 1014.13 1013.56 1012.86 1012.18 1011.66 1011.36 1011.29 1011.40 1011.59 1011.78 1011.90 1011.91 1011.85 1011.77 1011.76 1011.88 1012.17 1012.63 1013.18 1013.77 1014.29 1014.69 1014.94 1015.05 1015.07 1015.07 1015.10 1015.21 1015.39 1015.62 1015.84 1016.00 1016.07 1016.04 1015.94 1015.81 1015.71 1015.68 1015.73 1015.86 1016.03 1016.20 1016.33
1010.95 1012.22 1013.32 1014.11 1014.51 1014.51 1014.15 1013.58 1012.93 1012.35 1011.94 1011.75 1011.75 1011.89 1012.05 1012.17 1012.18 1012.08 1011.92 1011.77 1011.73 1011.84 1012.14 1012.61 1013.17 1013.75 1014.26 1014.63 1014.86 1014.96 1014.99 1015.00 1015.07 1015.21 1015.42 1015.66 1015.88 1016.03 1016.08 1016.04 1015.94 1015.82 1015.75 1015.75 1015.85 1016.01 1016.19 1016.36 1016.47
1011.35 1012.56 1013.58 1014.28 1014.61 1014.57 1014.25 1013.76 1013.24 1012.83 1012.59 1012.53 1012.63 1012.78 1012.92 1012.94 1012.84 1012.61 1012.33 1012.09 1011.97 1012.03 1012.29 1012.72 1013.24 1013.77 1014.22 1014.54 1014.73 1014.81 1014.83 1014.86 1014.95 1015.12 1015.35 1015.60 1015.82 1015.97 1016.03 1016.00 1015.93 1015.85 1015.82 1015.87 1016.00 1016.18 1016.37 1016.52 1016.59
1011.67 1012.82 1013.75 1014.39 1014.70 1014.69 1014.47 1014.13 1013.81 1013.60 1013.55 1013.64 1013.82 1013.99 1014.08 1014.02 1013.80 1013.44 1013.04 1012.69 1012.48 1012.45 1012.63 1012.98 1013.41 1013.85 1014.21 1014.46 1014.58 1014.62 1014.63 1014.66 1014.76 1014.93 1015.17 1015.43 1015.66 1015.82 1015.89 1015.89 1015.86 1015.83 1015.86 1015.96 1016.12 1016.31 1016.49 1016.61 1016.65
1011.97 1013.03 1013.90 1014.50 1014.82 1014.89 1014.81 1014.67 1014.56 1014.57 1014.69 1014.91 1015.15 1015.33 1015.37 1015.22 1014.89 1014.43 1013.93 1013.48 1013.17 1013.06 1013.14 1013.37 1013.69 1014.00 1014.25 1014.40 1014.45 1014.44 1014.42 1014.43 1014.52 1014.70 1014.93 1015.17 1015.39 1015.55 1015.65 1015.68 1015.69 1015.73 1015.81 1015.95 1016.13 1016.33 1016.49 1016.58 1016.58
1012.28 1013.25 1014.06 1014.64 1015.00 1015.18 1015.26 1015.31 1015.41 1015.59 1015.85 1016.16 1016.42 1016.58 1016.56 1016.33 1015.92 1015.39 1014.82 1014.32 1013.95 1013.75 1013.73 1013.85 1014.04 1014.22 1014.35 1014.39 1014.36 1014.29 1014.23 1014.22 1014.29 1014.43 1014.63 1014.85 1015.05 1015.20 1015.29 1015.35 1015.40 1015.48 1015.61 1015.78 1015.98 1016.18 1016.32 1016.39 1016.37
1012.59 1013.49 1014.25 1014.83 1015.25 1015.54 1015.76 1015.97 1016.22 1016.53 1016.87 1017.20 1017.45 1017.55 1017.47 1017.19 1016.74 1016.18 1015.60 1015.08 1014.69 1014.44 1014.35 1014.36 1014.42 1014.48 1014.48 1014.42 1014.32 1014.19 1014.08 1014.04 1014.07 1014.17 1014.33 1014.50 1014.65 1014.77 1014.85 1014.92 1014.99 1015.10 1015.25 1015.44 1015.65 1015.84 1015.97 1016.02 1016.00
1012.91 1013.75 1014.48 1015.07 1015.54 1015.92 1016.26 1016.59 1016.93 1017.29 1017.64 1017.93 1018.12 1018.15 1018.01 1017.69 1017.23 1016.70 1016.16 1015.68 1015.30 1015.04 1014.89 1014.82 1014.78 1014.72 1014.62 1014.47 1014.29 1014.12 1013.98 1013.90 1013.89 1013.94 1014.04 1014.14 1014.23 1014.30 1014.36 1014.41 1014.49 1014.60 1014.76 1014.96 1015.16 1015.33 1015.46 1015.51 1015.51
1013.23 1014.03 1014.73 1015.33 1015.85 1016.31 1016.72 1017.12 1017.49 1017.84 1018.13 1018.34 1018.43 1018.37 1018.17 1017.83 1017.40 1016.93 1016.47 1016.06 1015.74 1015.50 1015.33 1015.20 1015.07 1014.92 1014.73 1014.51 1014.28 1014.07 1013.90 1013.79 1013.74 1013.73 1013.76 1013.80 1013.82 1013.84 1013.85 1013.88 1013.94 1014.05 1014.21 1014.39 1014.58 1014.74 1014.86 1014.93 1014.95
1013.55 1014.30 1014.99 1015.60 1016.16 1016.67 1017.13 1017.55 1017.91 1018.20 1018.40 1018.49 1018.46 1018.31 1018.05 1017.71 1017.33 1016.94 1016.58 1016.27 1016.01 1015.81 1015.63 1015.46 1015.27 1015.04 1014.79 1014.52 1014.25 1014.01 1013.82 1013.68 1013.59 1013.54 1013.50 1013.47 1013.43 1013.39 1013.37 1013.37 1013.42 1013.52 1013.66 1013.83 1014.00 1014.15 1014.27 1014.34 1014.40
1013.87 1014.59 1015.25 1015.88 1016.47 1017.01 1017.50 1017.92 1018.25 1018.46 1018.55 1018.51 1018.36 1018.12 1017.82 1017.48 1017.15 1016.84 1016.58 1016.36 1016.17 1016.00 1015.82 1015.61 1015.37 1015.09 1014.79 1014.48 1014.19 1013.94 1013.73 1013.57 1013.45 1013.34 1013.25 1013.15 1013.06 1012.98 1012.92 1012.91 1012.95 1013.05 1013.18 1013.35 1013.51 1013.65 1013.77 1013.86 1013.95
1014.22 1014.89 1015.54 1016.17 1016.78 1017.36 1017.87 1018.28 1018.57 1018.71 1018.70 1018.55 1018.30 1017.99 1017.64 1017.31 1017.02 1016.78 1016.59 1016.43 1016.29 1016.13 1015.93 1015.69 1015.40 1015.08 1014.74 1014.41 1014.11 1013.84 1013.62 1013.44 1013.28 1013.13 1012.99 1012.85 1012.71 1012.60 1012.53 1012.52 1012.57 1012.68 1012.82 1012.99 1013.16 1013.30 1013.42 1013.53 1013.65
1014.62 1015.24 1015.85 1016.48 1017.11 1017.71 1018.24 1018.66 1018.93 1019.01 1018.94 1018.72 1018.40 1018.03 1017.66 1017.33 1017.06 1016.85 1016.69 1016.56 1016.43 1016.25 1016.03 1015.74 1015.41 1015.05 1014.69 1014.34 1014.03 1013.76 1013.53 1013.32 1013.12 1012.93 1012.73 1012.54 1012.37 1012.24 1012.17 1012.18 1012.26 1012.40 1012.58 1012.77 1012.95 1013.12 1013.25 1013.38 1013.52
1015.07 1015.62 1016.20 1016.82 1017.45 1018.08 1018.63 1019.07 1019.33 1019.41 1019.30 1019.05 1018.69 1018.30 1017.91 1017.57 1017.30 1017.10 1016.94 1016.79 1016.62 1016.41 1016.13 1015.80 1015.43 1015.04 1014.67 1014.32 1014.01 1013.73 1013.48 1013.24 1013.00 1012.75 1012.49 1012.25 1012.05 1011.91 1011.85 1011.88 1011.99 1012.18 1012.40 1012.64 1012.86 1013.06 1013.24 1013.40 1013.56
1015.56 1016.03 1016.56 1017.16 1017.80 1018.44 1019.02 1019.48 1019.77 1019.85 1019.76 1019.50 1019.14 1018.74 1018.35 1018.01 1017.72 1017.50 1017.30 1017.11 1016.88 1016.61 1016.28 1015.90 1015.49 1015.09 1014.72 1014.38 1014.07 1013.79 1013.53 1013.25 1012.95 1012.63 1012.31 1012.01 1011.76 1011.59 1011.53 1011.58 1011.73 1011.96 1012.24 1012.53 1012.81 1013.07 1013.30 1013.51 1013.72
1016.05 1016.44 1016.92 1017.48 1018.11 1018.76 1019.36 1019.85 1020.16 1020.28 1020.21 1019.98 1019.64 1019.26 1018.88 1018.53 1018.23 1017.97 1017.73 1017.47 1017.17 1016.83 1016.45 1016.03 1015.61 1015.22 1014.85 1014.53 1014.25 1013.97 1013.69 1013.37 1013.01 1012.62 1012.21 1011.84 1011.52 1011.31 1011.22 1011.27 1011.44 1011.70 1012.02 1012.38 1012.73 1013.06 1013.36 1013.65 1013.92
1016.49 1016.81 1017.23 1017.76 1018.38 1019.02 1019.63 1020.12 1020.46 1020.60 1020.56 1020.37 1020.07 1019.72 1019.36 1019.02 1018.71 1018.42 1018.13 1017.81 1017.45 1017.06 1016.63 1016.19 1015.77 1015.40 1015.07 1014.78 1014.52 1014.26 1013.97 1013.61 1013.19 1012.72 1012.22 1011.75 1011.35 1011.06 1010.92 1010.93 1011.08 1011.35 1011.71 1012.11 1012.52 1012.93 1013.33 1013.71 1014.08
1016.82 1017.09 1017.48 1017.99 1018.58 1019.20 1019.79 1020.27 1020.61 1020.76 1020.74 1020.58 1020.33 1020.01 1019.69 1019.37 1019.06 1018.76 1018.43 1018.07 1017.67 1017.24 1016.79 1016.35 1015.95 1015.60 1015.32 1015.08 1014.86 1014.62 1014.32 1013.93 1013.46 1012.92 1012.33 1011.76 1011.26 1010.87 1010.64 1010.57 1010.68 1010.92 1011.27 1011.69 1012.15 1012.64 1013.13 1013.62 1014.11
1017.03 1017.29 1017.67 1018.15 1018.72 1019.31 1019.86 1020.31 1020.61 1020.74 1020.72 1020.58 1020.35 1020.08 1019.79 1019.51 1019.23 1018.93 1018.60 1018.23 1017.81 1017.36 1016.90 1016.47 1016.10 1015.79 1015.55 1015.36 1015.18 1014.96 1014.67 1014.28 1013.77 1013.17 1012.50 1011.84 1011.23 1010.73 1010.39 1010.23 1010.24 1010.41 1010.72 1011.13 1011.62 1012.16 1012.74 1013.34 1013.94
1017.15 1017.43 1017.82 1018.31 1018.85 1019.40 1019.89 1020.26 1020.50 1020.59 1020.54 1020.39 1020.17 1019.93 1019.69 1019.45 1019.21 1018.94 1018.64 1018.27 1017.86 1017.42 1016.97 1016.55 1016.20 1015.92 1015.72 1015.56 1015.41 1015.23 1014.96 1014.57 1014.04 1013.41 1012.69 1011.95 1011.26 1010.65 1010.20 1009.91 1009.81 1009.89 1010.12 1010.49 1010.97 1011.53 1012.17 1012.85 1013.56
1017.22 1017.55 1017.98 1018.48 1019.01 1019.51 1019.92 1020.22 1020.37 1020.37 1020.27 1020.09 1019.87 1019.65 1019.45 1019.26 1019.07 1018.85 1018.58 1018.25 1017.86 1017.43 1016.99 1016.58 1016.24 1015.97 1015.78 1015.64 1015.51 1015.35 1015.10 1014.73 1014.21 1013.57 1012.84 1012.07 1011.31 1010.62 1010.07 1009.67 1009.45 1009.42 1009.55 1009.85 1010.28 1010.83 1011.48 1012.21 1012.99
1017.30 1017.71 1018.20 1018.73 1019.24 1019.69 1020.03 1020.22 1020.27 1020.18 1020.00 1019.77 1019.54 1019.34 1019.16 1019.02 1018.88 1018.71 1018.49 1018.20 1017.84 1017.42 1016.99 1016.58 1016.22 1015.94 1015.74 1015.59 1015.46 1015.31 1015.08 1014.73 1014.25 1013.64 1012.92 1012.15 1011.37 1010.65 1010.02 1009.53 1009.21 1009.06 1009.09 1009.29 1009.64 1010.13 1010.76 1011.49 1012.29
1017.45 1017.94 1018.49 1019.05 1019.55 1019.95 1020.21 1020.31 1020.25 1020.07 1019.81 1019.53 1019.27 1019.06 1018.91 1018.80 1018.70 1018.58 1018.41 1018.15 1017.81 1017.41 1016.98 1016.55 1016.17 1015.86 1015.62 1015.45 1015.30 1015.13 1014.91 1014.60 1014.16 1013.60 1012.93 1012.20 1011.45 1010.72 1010.07 1009.53 1009.13 1008.88 1008.81 1008.89 1009.15 1009.55 1010.10 1010.78 1011.55
1017.68 1018.25 1018.84 1019.41 1019.90 1020.26 1020.45 1020.45 1020.31 1020.04 1019.71 1019.38 1019.09 1018.87 1018.73 1018.64 1018.57 1018.49 1018.34 1018.12 1017.81 1017.42 1016.98 1016.53 1016.12 1015.77 1015.48 1015.26 1015.08 1014.89 1014.67 1014.38 1013.99 1013.49 1012.90 1012.24 1011.55 1010.86 1010.22 1009.66 1009.22 1008.91 1008.74 1008.73 1008.87 1009.16 1009.60 1010.18 1010.86
1017.97 1018.57 1019.19 1019.76 1020.23 1020.53 1020.66 1020.61 1020.39 1020.07 1019.69 1019.32 1019.01 1018.78 1018.63 1018.54 1018.49 1018.42 1018.29 1018.09 1017.79 1017.42 1016.98 1016.53 1016.09 1015.71 1015.38 1015.11 1014.89 1014.68 1014.45 1014.18 1013.83 1013.40 1012.89 1012.31 1011.70 1011.08 1010.49 1009.95 1009.49 1009.14 1008.90 1008.80 1008.83 1009.01 1009.32 1009.76 1010.32
1018.25 1018.86 1019.46 1020.00 1020.42 1020.68 1020.76 1020.66 1020.41 1020.07 1019.68 1019.30 1018.98 1018.73 1018.57 1018.48 1018.41 1018.34 1018.22 1018.03 1017.75 1017.39 1016.98 1016.54 1016.10 1015.71 1015.36 1015.06 1014.81 1014.58 1014.35 1014.09 1013.77 1013.39 1012.95 1012.46 1011.93 1011.39 1010.85 1010.36 1009.92 1009.55 1009.27 1009.10 1009.04 1009.10 1009.28 1009.58 1010.00
1018.46 1019.02 1019.56 1020.04 1020.39 1020.60 1020.65 1020.53 1020.29 1019.96 1019.59 1019.23 1018.93 1018.68 1018.51 1018.40 1018.31 1018.22 1018.09 1017.89 1017.64 1017.31 1016.94 1016.54 1016.14 1015.77 1015.44 1015.15 1014.90 1014.66 1014.42 1014.17 1013.87 1013.53 1013.14 1012.71 1012.25 1011.78 1011.31 1010.86 1010.45 1010.08 1009.79 1009.57 1009.43 1009.39 1009.46 1009.63 1009.91
Thickness
5841 5841 5839 5826 5804 5794 5787 5798 5809 5810 5816 5828 5831 5824 5809 5800 5790 5778 5805 5820 5816 5808 5801 5796 5794 5792 5790 5788 5786 5784 5783 5781 5780 5778 5777 5776 5775 5774 5773 5773 5772 5771 5771 5771 5771 5770 5770 5770 5770
5847 5845 5833 5816 5794 5779 5783 5802 5805 5813 5824 5833 5830 5824 5813 5805 5809 5806 5811 5817 5816 5809 5802 5798 5793 5791 5789 5787 5786 5784 5782 5781 5779 5778 5777 5775 5774 5773 5772 5772 5771 5770 5770 5769 5769 5769 5769 5768 5768
5850 5847 5825 5808 5797 5784 5787 5806 5812 5823 5832 5830 5823 5819 5807 5802 5809 5809 5814 5818 5816 5810 5803 5797 5793 5790 5788 5787 5785 5783 5782 5780 5779 5778 5776 5775 5774 5773 5772 5771 5770 5770 5769 5768 5768 5767 5767 5767 5767
5850 5836 5823 5806 5794 5801 5806 5813 5820 5820 5825 5829 5822 5806 5803 5811 5811 5813 5818 5818 5814 5809 5803 5796 5792 5789 5787 5786 5784 5782 5781 5780 5779 5777 5776 5775 5774 5773 5772 5771 5770 5769 5768 5768 5767 5766 5766 5766 5765
5848 5822 5800 5795 5798 5809 5818 5822 5822 5814 5814 5817 5813 5795 5792 5808 5815 5815 5816 5815 5810 5807 5802 5796 5792 5789 5787 5785 5783 5782 5780 5779 5778 5777 5776 5775 5774 5773 5772 5770 5770 5769 5768 5767 5766 5766 5765 5765 5764
5832 5813 5783 5783 5795 5807 5818 5823 5820 5812 5809 5811 5807 5794 5789 5805 5808 5810 5812 5811 5809 5805 5801 5795 5791 5789 5786 5784 5783 5781 5780 5778 5777 5776 5775 5774 5773 5772 5771 5770 5769 5768 5768 5767 5766 5765 5764 5764 5763
5824 5805 5789 5791 5793 5799 5812 5822 5813 5805 5800 5801 5808 5793 5788 5798 5804 5808 5808 5807 5805 5802 5799 5794 5790 5787 5785 5784 5782 5781 5779 5778 5777 5776 5775 5774 5773 5772 5771 5770 5769 5768 5767 5766 5766 5765 5764 5764 5763
5837 5816 5794 5788 5788 5793 5812 5815 5811 5802 5793 5802 5803 5783 5776 5790 5803 5804 5803 5801 5799 5797 5794 5792 5790 5787 5785 5783 5781 5780 5779 5777 5776 5775 5774 5773 5773 5772 5771 5770 5769 5768 5767 5766 5766 5765 5764 5764 5763
5841 5803 5781 5788 5792 5794 5808 5805 5805 5806 5794 5791 5789 5784 5785 5794 5797 5793 5790 5789 5788 5788 5788 5788 5786 5785 5784 5783 5782 5779 5778 5776 5775 5774 5774 5773 5772 5772 5772 5771 5770 5768 5767 5766 5766 5765 5765 5764 5764
5828 5789 5788 5806 5808 5798 5797 5795 5798 5790 5778 5776 5777 5781 5786 5786 5783 5779 5776 5775 5776 5777 5780 5782 5782 5781 5780 5780 5779 5778 5777 5776 5774 5774 5774 5772 5772 5773 5773 5772 5770 5768 5767 5766 5766 5765 5765 5765 5765
5821 5801 5804 5808 5811 5804 5793 5785 5787 5778 5760 5763 5764 5769 5774 5774 5772 5769 5768 5768 5769 5771 5773 5775 5776 5776 5776 5776 5775 5775 5775 5774 5773 5774 5774 5772 5772 5772 5773 5772 5770 5768 5767 5766 5766 5765 5766 5767 5768
5813 5807 5811 5806 5807 5801 5791 5782 5771 5765 5759 5767 5768 5769 5767 5765 5763 5762 5761 5762 5764 5765 5766 5768 5769 5769 5770 5771 5771 5771 5771 5771 5771 5771 5772 5771 5771 5771 5771 5771 5770 5769 5768 5768 5768 5767 5769 5770 5772
5805 5799 5800 5799 5796 5789 5781 5770 5763 5757 5763 5766 5765 5763 5759 5757 5756 5757 5757 5757 5756 5756 5757 5760 5761 5762 5763 5763 5764 5766 5767 5768 5768 5769 5769 5770 5769 5768 5769 5770 5770 5770 5770 5769 5770 5769 5772 5773 5773
5805 5799 5794 5793 5789 5784 5771 5765 5758 5751 5760 5759 5756 5753 5751 5749 5748 5748 5746 5745 5746 5746 5748 5750 5751 5753 5753 5754 5756 5758 5760 5761 5762 5764 5766 5766 5767 5766 5767 5767 5768 5768 5769 5769 5769 5770 5771 5772 5772
5807 5791 5785 5786 5784 5779 5771 5750 5747 5751 5754 5749 5747 5745 5742 5741 5741 5738 5736 5735 5736 5737 5738 5740 5741 5743 5744 5745 5747 5749 5750 5753 5755 5758 5759 5761 5763 5763 5763 5763 5764 5765 5766 5766 5766 5768 5769 5769 5769
5800 5785 5765 5774 5779 5777 5761 5732 5742 5750 5746 5738 5737 5736 5733 5732 5732 5730 5728 5727 5727 5727 5727 5729 5731 5732 5733 5734 5736 5738 5741 5743 5747 5751 5752 5753 5756 5758 5759 5758 5760 5761 5762 5762 5762 5762 5763 5764 5764
5786 5769 5757 5758 5774 5772 5756 5732 5737 5743 5738 5731 5729 5728 5725 5722 5721 5720 5718 5717 5717 5717 5717 5718 5719 5719 5721 5722 5725 5728 5730 5733 5738 5742 5745 5747 5748 5751 5752 5753 5754 5756 5757 5758 5758 5757 5757 5757 5758
5769 5769 5765 5756 5763 5761 5746 5732 5733 5735 5729 5723 5721 5719 5714 5710 5709 5710 5708 5707 5706 5706 5706 5706 5706 5708 5709 5711 5713 5716 5719 5723 5727 5732 5736 5739 5741 5743 5744 5747 5748 5749 5751 5751 5752 5751 5752 5753 5753
5783 5777 5767 5759 5763 5753 5741 5731 5727 5726 5720 5713 5710 5707 5703 5700 5701 5700 5698 5697 5695 5694 5693 5693 5693 5695 5697 5698 5699 5701 5705 5711 5716 5721 5725 5729 5732 5734 5736 5738 5740 5742 5743 5744 5745 5745 5745 5745 5748
5781 5772 5767 5758 5760 5751 5738 5729 5725 5719 5713 5707 5703 5698 5694 5690 5690 5689 5688 5686 5684 5682 5682 5683 5683 5684 5686 5687 5689 5692 5695 5700 5706 5711 5715 5719 5723 5726 5729 5731 5732 5734 5735 5736 5738 5739 5738 5739 5742
5775 5767 5760 5753 5751 5748 5735 5719 5715 5713 5712 5706 5701 5695 5690 5685 5682 5680 5678 5676 5675 5673 5673 5673 5673 5675 5676 5678 5680 5683 5686 5690 5694 5699 5704 5709 5714 5717 5721 5724 5725 5726 5729 5730 5732 5733 5731 5729 5733
5761 5765 5760 5752 5738 5731 5730 5703 5704 5706 5701 5698 5694 5689 5683 5680 5678 5674 5671 5668 5667 5666 5666 5665 5666 5666 5668 5670 5670 5671 5673 5676 5682 5688 5694 5700 5705 5709 5713 5716 5718 5721 5723 5724 5727 5729 5728 5726 5724
5759 5764 5758 5751 5739 5731 5733 5714 5697 5706 5693 5690 5688 5684 5680 5676 5673 5668 5666 5663 5662 5661 5659 5659 5658 5658 5660 5662 5663 5664 5666 5669 5675 5680 5686 5691 5697 5701 5705 5708 5711 5713 5716 5718 5720 5723 5723 5724 5723
5766 5761 5757 5752 5739 5718 5729 5715 5692 5697 5691 5687 5685 5681 5677 5673 5669 5665 5663 5660 5657 5656 5655 5654 5652 5652 5654 5655 5657 5659 5660 5663 5667 5671 5676 5681 5687 5692 5696 5700 5703 5707 5710 5713 5715 5717 5718 5719 5720
5763 5748 5732 5726 5718 5718 5729 5716 5695 5699 5697 5690 5683 5679 5675 5671 5666 5662 5659 5655 5653 5652 5651 5650 5648 5647 5649 5650 5652 5654 5655 5658 5660 5664 5668 5672 5678 5682 5687 5692 5695 5699 5703 5706 5709 5711 5712 5714 5714
5757 5747 5724 5709 5717 5722 5724 5709 5699 5707 5702 5696 5690 5682 5676 5671 5666 5661 5658 5655 5652 5650 5648 5647 5646 5645 5646 5647 5648 5650 5652 5653 5656 5659 5662 5666 5670 5675 5680 5685 5688 5692 5696 5699 5702 5705 5707 5708 5710
5749 5750 5749 5728 5729 5722 5721 5711 5703 5708 5700 5694 5689 5681 5675 5670 5666 5662 5659 5656 5653 5650 5648 5647 5646 5645 5645 5646 5647 5647 5648 5649 5651 5654 5657 5660 5664 5669 5673 5677 5680 5685 5689 5692 5695 5698 5700 5703 5705
5754 5748 5741 5728 5711 5704 5716 5709 5697 5695 5693 5691 5686 5680 5674 5671 5667 5664 5661 5657 5654 5652 5650 5649 5647 5645 5645 5645 5645 5645 5645 5646 5648 5650 5652 5655 5659 5663 5666 5670 5674 5678 5682 5686 5689 5692 5694 5697 5699
5748 5746 5740 5733 5726 5703 5694 5694 5710 5702 5697 5691 5687 5682 5676 5672 5669 5666 5663 5659 5657 5654 5652 5649 5648 5646 5645 5644 5643 5643 5643 5644 5645 5647 5648 5651 5654 5658 5660 5663 5667 5672 5675 5679 5682 5686 5688 5690 5693
5748 5742 5736 5719 5718 5719 5705 5695 5717 5710 5704 5697 5690 5685 5681 5676 5672 5669 5665 5661 5657 5655 5653 5650 5648 5647 5645 5644 5643 5642 5642 5642 5642 5644 5646 5648 5650 5653 5655 5658 5661 5665 5668 5672 5675 5679 5682 5684 5687